EA1ZE Weather Reports


time (UTC)temp
C
wind
direction
speed
KPH
gust
KPH
rain 1hr
cm
rain 24hr
cm
rain mn
cm
humidity
%
barometer
mb
20260508040007 8 81 1.6 6.4 0.00 0.23 0.00 82 1009.1
20260508034519 8 81 0.0 4.8 0.00 0.23 0.00 83 1009.1
20260508033005 8 80 6.4 12.9 0.00 0.23 0.00 83 1009.1
20260508031507 8 80 3.2 6.4 0.00 0.23 0.00 83 1009.3
20260508030004 8 80 0.0 6.4 0.00 0.23 0.00 83 1009.2
20260508024505 8 80 3.2 8.0 0.00 0.23 0.00 83 1009.2
20260508023002 8 81 3.2 9.7 0.00 0.23 0.00 83 1009.2
20260508021606 8 81 4.8 9.7 0.00 0.23 0.00 83 1009.4
20260508020058 8 62 9.7 17.7 0.00 0.23 0.00 83 1009.5
20260508014555 9 89 4.8 14.5 0.00 0.23 0.00 82 1009.7
20260508013052 9 82 8.0 14.5 0.00 0.23 0.00 81 1009.9
20260508011552 10 94 3.2 9.7 0.00 0.23 0.00 80 1010.0
20260508010047 10 91 4.8 9.7 0.00 0.23 0.00 79 1010.0
20260508004545 10 90 1.6 11.3 0.00 0.23 0.00 79 1010.1
20260508003044 10 69 6.4 16.1 0.00 0.23 0.00 80 1010.2
20260508001541 10 91 6.4 12.9 0.00 0.23 0.00 79 1010.2
20260508000050 11 169 1.6 9.7 0.00 0.23 0.00 79 1010.4
20260507234543 11 113 4.8 9.7 0.00 0.23 0.00 79 1010.4
20260507233036 11 107 3.2 6.4 0.00 0.23 0.00 79 1010.6
20260507231542 11 104 1.6 4.8 0.00 0.23 0.00 79 1010.6
20260507230032 11 104 0.0 0.0 0.00 0.23 0.00 78 1010.8
20260507224533 11 104 0.0 4.8 0.00 0.23 0.00 78 1010.9
20260507223029 11 104 1.6 6.4 0.00 0.23 0.00 77 1010.9
20260507221530 11 104 0.0 6.4 0.00 0.23 0.00 76 1010.9
20260507220026 11 101 8.0 16.1 0.00 0.23 0.23 76 1010.7
20260507214529 11 107 6.4 14.5 0.00 0.23 0.23 75 1010.7
20260507213025 11 151 3.2 8.0 0.00 0.23 0.23 74 1010.5
20260507211532 12 204 0.0 4.8 0.00 0.23 0.23 74 1010.7
20260507210024 12 204 0.0 6.4 0.00 0.23 0.23 73 1010.7
20260507204638 12 205 3.2 11.3 0.00 0.23 0.23 72 1010.6
20260507203118 12 170 4.8 8.0 0.00 0.23 0.23 71 1010.6
20260507201631 12 171 6.4 9.7 0.00 0.23 0.23 70 1010.6
20260507200126 13 170 9.7 12.9 0.00 0.23 0.23 68 1010.2
20260507194642 13 163 8.0 14.5 0.00 0.23 0.23 67 1009.9
20260507193152 13 145 3.2 11.3 0.00 0.23 0.23 65 1009.5
20260507191649 14 147 6.4 14.5 0.00 0.23 0.23 65 1009.3
20260507190004 15 157 3.2 12.9 0.00 0.23 0.23 65 1009.2
20260507184502 15 134 8.0 14.5 0.00 0.23 0.23 63 1009.0
20260507183001 15 178 6.4 17.7 0.00 0.23 0.23 62 1008.9
20260507181501 15 134 3.2 19.3 0.00 0.23 0.23 62 1008.8
20260507180002 15 94 6.4 17.7 0.00 0.23 0.23 59 1008.7
20260507174636 15 104 4.8 17.7 0.00 0.23 0.23 61 1008.9
20260507173059 15 98 4.8 22.5 0.00 0.23 0.23 67 1008.8
20260507171619 16 111 8.0 14.5 0.00 0.23 0.23 59 1008.8
20260507164558 15 169 3.2 11.3 0.00 0.23 0.23 62 1008.7
20260507163059 13 82 6.4 8.0 0.00 0.23 0.23 60 1008.6
20260507161559 12 57 3.2 6.4 0.03 0.23 0.23 73 1008.9
20260507160117 12 57 4.8 17.7 0.05 0.23 0.23 79 1008.7
20260507154557 11 23 6.4 14.5 0.08 0.23 0.23 83 1009.2
20260507153055 11 115 0.0 6.4 0.15 0.23 0.23 84 1009.7
20260507151559 11 165 0.0 4.8 0.10 0.20 0.20 83 1009.9
20260507150055 11 165 4.8 9.7 0.10 0.18 0.18 82 1009.8
20260507144554 11 187 9.7 17.7 0.08 0.15 0.15 79 1009.8
20260507143101 12 168 17.7 32.2 0.03 0.10 0.10 73 1009.5
20260507141608 13 149 22.5 35.4 0.03 0.10 0.10 63 1009.2
20260507140111 17 171 16.1 27.4 0.00 0.08 0.08 52 1008.9
20260507134555 17 78 3.2 12.9 0.00 0.08 0.08 51 1008.2
20260507133059 17 53 4.8 12.9 0.00 0.08 0.08 54 1008.1
20260507131615 16 38 4.8 12.9 0.05 0.08 0.08 56 1008.1
20260507130049 16 35 3.2 14.5 0.08 0.08 0.08 59 1008.3
20260507124554 16 332 3.2 9.7 0.08 0.08 0.08 61 1008.4
20260507123050 16 350 1.6 14.5 0.08 0.08 0.08 64 1008.4
20260507121545 17 262 6.4 11.3 0.03 0.03 0.03 63 1008.9
20260507120045 18 273 3.2 11.3 0.00 0.00 0.00 57 1009.1
20260507114542 18 280 4.8 14.5 0.00 0.00 0.00 51 1009.1
20260507113104 19 211 1.6 8.0 0.00 0.00 0.00 46 1009.1
20260507111539 19 171 3.2 8.0 0.00 0.00 0.00 49 1009.3
20260507110039 18 156 3.2 16.1 0.00 0.00 0.00 52 1009.7
20260507104535 18 109 4.8 16.1 0.00 0.00 0.00 51 1009.8
20260507103032 17 165 3.2 14.5 0.00 0.00 0.00 54 1010.0
20260507101528 17 180 1.6 9.7 0.00 0.00 0.00 58 1010.1
20260507100033 16 169 3.2 16.1 0.00 0.00 0.00 58 1010.2
20260507094520 16 164 6.4 12.9 0.00 0.00 0.00 60 1010.4
20260507093017 15 150 3.2 14.5 0.00 0.00 0.00 61 1010.4
20260507091516 15 167 6.4 14.5 0.00 0.00 0.00 62 1010.5
20260507090011 14 190 6.4 12.9 0.00 0.00 0.00 66 1010.4
20260507084512 13 82 4.8 12.9 0.00 0.00 0.00 69 1010.6
20260507083005 12 84 0.0 16.1 0.00 0.00 0.00 74 1010.6
20260507081559 11 115 4.8 12.9 0.00 0.00 0.00 76 1010.6
20260507080059 10 82 11.3 17.7 0.00 0.00 0.00 77 1010.7
20260507074559 10 58 11.3 20.9 0.00 0.00 0.00 76 1010.7
20260507073106 10 78 4.8 12.9 0.00 0.00 0.00 78 1010.7
20260507071556 10 48 6.4 14.5 0.00 0.00 0.00 81 1010.8
20260507070107 9 35 4.8 9.7 0.00 0.00 0.00 81 1010.9
20260507064600 9 35 3.2 8.0 0.00 0.00 0.00 83 1011.0
20260507063056 8 35 0.0 6.4 0.00 0.00 0.00 85 1011.0
20260507061555 7 35 1.6 6.4 0.00 0.00 0.00 86 1011.0
20260507060054 7 35 3.2 12.9 0.00 0.00 0.00 87 1010.7
20260507054553 7 38 6.4 12.9 0.00 0.00 0.00 87 1010.7
20260507053052 7 32 4.8 14.5 0.00 0.00 0.00 87 1010.9
20260507051559 7 25 8.0 17.7 0.00 0.00 0.00 87 1010.8
20260507050105 7 40 6.4 16.1 0.00 0.00 0.00 86 1010.6
20260507044554 7 28 8.0 16.1 0.00 0.00 0.00 86 1010.7
20260507043046 7 30 6.4 16.1 0.00 0.00 0.00 85 1010.8
20260507041544 8 19 8.0 16.1 0.00 0.00 0.00 84 1010.8